USA 270

Last updated on Tue Oct 14 2025 00:02:48 GMT+0000 (Coordinated Universal Time)

1 41744U 16052A 25286.44302609 -.00000300 00000+0 00000+0 0 9997 2 41744 3.5604 80.3332 0001420 234.8564 2.3397 1.00393538 25652
UTC large
Height (km)
Speed (km/s)
/
Latitude / Longitude
Inclination (degrees)
Orbital Period (minutes)
Azimuth
Elevation
Range (km)
Doppler Factor

Next 0 passes for location: London (51.5072 / 0.1276)

Sorry there are no passes over London.